Location: B�hl
(48.6968°N, 8.1352°E)
Time: 03:08:59
(UTC+00:00)

SL-08 RB Rocket - Pass Details

Date: 08 March 2021
Orbit: 647 x 683 km, 97.8° (Epoch: 16 April)

Event Time Altitude Azimuth Distance (km) Brightness Sun altitude
Rises 18:12:45 0° 155° (SSE) 2,977 6.8 -9.2°
Reaches altitude 10° 18:14:58 10° 152° (SSE) 2,075 5.9 -9.5°
Maximum altitude 18:19:26 61° 72° (ENE) 759 3.7 -10.3°
Drops below altitude 10° 18:23:59 10° 353° (N) 2,114 6.5 -11.0°
Sets 18:26:15 0° 350° (N) 3,039 7.3 -11.4°
